Time,TemperatureF,DewpointF,PressureIn,WindDirection,WindDirectionDegrees,WindSpeedMPH,WindSpeedGustMPH,Humidity,HourlyPrecipIn,Conditions,Clouds,dailyrainin,SoftwareType,DateUTC
2013-03-07 00:02:00,56.0,-99.9,30.15,North,6,26.0,29.0,-999,-99.99,,,-99.99,,2013-03-07 05:02:00,
2013-03-07 00:12:00,56.0,-99.9,30.15,North,7,25.0,29.0,-999,-99.99,,,-99.99,,2013-03-07 05:12:00,
2013-03-07 00:23:00,56.0,-99.9,30.15,North,5,24.0,27.0,-999,-99.99,,,-99.99,,2013-03-07 05:23:00,
2013-03-07 00:32:00,56.0,-99.9,30.15,North,6,23.0,28.0,-999,-99.99,,,-99.99,,2013-03-07 05:32:00,
2013-03-07 00:42:00,55.0,-99.9,30.15,NNE,15,20.0,27.0,-999,-99.99,,,-99.99,,2013-03-07 05:42:00,
2013-03-07 00:53:00,55.0,-99.9,30.15,NNE,12,23.0,28.0,-999,-99.99,,,-99.99,,2013-03-07 05:53:00,
2013-03-07 01:02:00,55.0,-99.9,30.15,NNE,13,23.0,27.0,-999,-99.99,,,-99.99,,2013-03-07 06:02:00,
2013-03-07 01:11:00,55.0,-99.9,30.15,North,11,22.0,27.0,-999,-99.99,,,-99.99,,2013-03-07 06:11:00,
2013-03-07 01:22:00,54.0,-99.9,30.16,NNE,12,21.0,26.0,-999,-99.99,,,-99.99,,2013-03-07 06:22:00,
2013-03-07 01:32:00,54.0,-99.9,30.15,NNE,23,19.0,26.0,-999,-99.99,,,-99.99,,2013-03-07 06:32:00,
2013-03-07 01:42:00,54.0,-99.9,30.15,NNE,14,20.0,23.0,-999,-99.99,,,-99.99,,2013-03-07 06:42:00,
2013-03-07 01:52:00,54.0,-99.9,30.16,NNE,16,19.0,24.0,-999,-99.99,,,-99.99,,2013-03-07 06:52:00,
2013-03-07 02:02:00,54.0,-99.9,30.16,NNE,15,21.0,25.0,-999,-99.99,,,-99.99,,2013-03-07 07:02:00,
2013-03-07 02:11:00,54.0,-99.9,30.16,North,10,21.0,25.0,-999,-99.99,,,-99.99,,2013-03-07 07:11:00,
2013-03-07 02:22:00,53.0,-99.9,30.16,NNE,19,17.0,20.0,-999,-99.99,,,-99.99,,2013-03-07 07:22:00,
2013-03-07 02:32:00,53.0,-99.9,30.16,NNE,21,18.0,21.0,-999,-99.99,,,-99.99,,2013-03-07 07:32:00,
2013-03-07 02:43:00,53.0,-99.9,30.16,NNE,19,19.0,23.0,-999,-99.99,,,-99.99,,2013-03-07 07:43:00,
2013-03-07 02:53:00,53.0,-99.9,30.16,NNE,14,20.0,24.0,-999,-99.99,,,-99.99,,2013-03-07 07:53:00,
2013-03-07 03:12:00,53.0,-99.9,30.15,NNE,21,18.0,27.0,-999,-99.99,,,-99.99,,2013-03-07 08:12:00,
2013-03-07 03:23:00,52.0,-99.9,30.14,NNE,18,20.0,23.0,-999,-99.99,,,-99.99,,2013-03-07 08:23:00,
2013-03-07 03:34:00,52.0,-99.9,30.14,NNE,27,18.0,24.0,-999,-99.99,,,-99.99,,2013-03-07 08:34:00,
2013-03-07 03:45:00,52.0,-99.9,30.14,NNE,22,18.0,23.0,-999,-99.99,,,-99.99,,2013-03-07 08:45:00,
2013-03-07 03:54:00,53.0,-99.9,30.14,North,8,22.0,24.0,-999,-99.99,,,-99.99,,2013-03-07 08:54:00,
2013-03-07 04:03:00,52.0,-99.9,30.15,NNE,18,18.0,26.0,-999,-99.99,,,-99.99,,2013-03-07 09:03:00,
2013-03-07 04:14:00,52.0,-99.9,30.15,North,11,20.0,26.0,-999,-99.99,,,-99.99,,2013-03-07 09:14:00,
2013-03-07 04:24:00,52.0,-99.9,30.15,NNE,14,20.0,23.0,-999,-99.99,,,-99.99,,2013-03-07 09:24:00,
2013-03-07 04:33:00,52.0,-99.9,30.15,NNE,14,21.0,25.0,-999,-99.99,,,-99.99,,2013-03-07 09:33:00,
2013-03-07 04:43:00,51.0,-99.9,30.15,NNE,21,19.0,24.0,-999,-99.99,,,-99.99,,2013-03-07 09:43:00,
2013-03-07 04:54:00,51.0,-99.9,30.15,North,11,22.0,24.0,-999,-99.99,,,-99.99,,2013-03-07 09:54:00,
2013-03-07 05:04:00,49.0,-99.9,30.16,NE,44,11.0,23.0,-999,-99.99,,,-99.99,,2013-03-07 10:04:00,
2013-03-07 05:14:00,49.0,-99.9,30.16,NE,47,9.0,12.0,-999,-99.99,,,-99.99,,2013-03-07 10:14:00,
2013-03-07 05:24:00,48.0,-99.9,30.15,ENE,66,8.0,11.0,-999,-99.99,,,-99.99,,2013-03-07 10:24:00,
2013-03-07 05:33:00,48.0,-99.9,30.16,NE,47,7.0,11.0,-999,-99.99,,,-99.99,,2013-03-07 10:33:00,
2013-03-07 05:43:00,48.0,-99.9,30.16,NE,43,7.0,13.0,-999,-99.99,,,-99.99,,2013-03-07 10:43:00,
2013-03-07 05:54:00,48.0,-99.9,30.16,NE,41,9.0,13.0,-999,-99.99,,,-99.99,,2013-03-07 10:54:00,
2013-03-07 06:04:00,48.0,-99.9,30.17,NNE,32,11.0,16.0,-999,-99.99,,,-99.99,,2013-03-07 11:04:00,
2013-03-07 06:12:00,48.0,-99.9,30.17,NE,34,11.0,15.0,-999,-99.99,,,-99.99,,2013-03-07 11:12:00,
2013-03-07 06:23:00,48.0,-99.9,30.17,NNE,30,14.0,17.0,-999,-99.99,,,-99.99,,2013-03-07 11:23:00,
2013-03-07 06:34:00,48.0,-99.9,30.18,NE,34,15.0,19.0,-999,-99.99,,,-99.99,,2013-03-07 11:34:00,
2013-03-07 06:44:00,48.0,-99.9,30.19,NE,37,14.0,18.0,-999,-99.99,,,-99.99,,2013-03-07 11:44:00,
2013-03-07 06:55:00,47.0,-99.9,30.18,NE,41,14.0,17.0,-999,-99.99,,,-99.99,,2013-03-07 11:55:00,
2013-03-07 07:04:00,47.0,-99.9,30.18,NE,43,10.0,15.0,-999,-99.99,,,-99.99,,2013-03-07 12:04:00,
2013-03-07 07:13:00,47.0,-99.9,30.18,NE,42,9.0,14.0,-999,-99.99,,,-99.99,,2013-03-07 12:13:00,
2013-03-07 07:23:00,47.0,-99.9,30.18,NE,44,12.0,17.0,-999,-99.99,,,-99.99,,2013-03-07 12:23:00,
2013-03-07 07:34:00,47.0,-99.9,30.19,NNE,33,13.0,17.0,-999,-99.99,,,-99.99,,2013-03-07 12:34:00,
2013-03-07 07:43:00,46.0,-99.9,30.19,NE,41,14.0,17.0,-999,-99.99,,,-99.99,,2013-03-07 12:43:00,
2013-03-07 07:53:00,46.0,-99.9,30.20,NNE,32,15.0,17.0,-999,-99.99,,,-99.99,,2013-03-07 12:53:00,
2013-03-07 08:03:00,46.0,-99.9,30.20,NE,38,16.0,20.0,-999,-99.99,,,-99.99,,2013-03-07 13:03:00,
2013-03-07 08:13:00,47.0,-99.9,30.21,NNE,33,16.0,20.0,-999,-99.99,,,-99.99,,2013-03-07 13:13:00,
2013-03-07 08:23:00,47.0,-99.9,30.21,NE,37,12.0,17.0,-999,-99.99,,,-99.99,,2013-03-07 13:23:00,
2013-03-07 08:33:00,47.0,-99.9,30.21,NNE,32,13.0,15.0,-999,-99.99,,,-99.99,,2013-03-07 13:33:00,
2013-03-07 08:43:00,46.0,-99.9,30.21,NE,42,12.0,16.0,-999,-99.99,,,-99.99,,2013-03-07 13:43:00,
2013-03-07 08:53:00,46.0,-99.9,30.22,NNE,28,15.0,17.0,-999,-99.99,,,-99.99,,2013-03-07 13:53:00,
2013-03-07 09:02:00,47.0,-99.9,30.22,NNE,29,11.0,15.0,-999,-99.99,,,-99.99,,2013-03-07 14:02:00,
2013-03-07 09:12:00,47.0,-99.9,30.22,NE,40,13.0,15.0,-999,-99.99,,,-99.99,,2013-03-07 14:12:00,
2013-03-07 09:23:00,47.0,-99.9,30.22,NNE,29,14.0,16.0,-999,-99.99,,,-99.99,,2013-03-07 14:23:00,
2013-03-07 09:34:00,47.0,-99.9,30.22,NE,41,11.0,17.0,-999,-99.99,,,-99.99,,2013-03-07 14:34:00,
2013-03-07 09:43:00,47.0,-99.9,30.23,NNE,25,13.0,17.0,-999,-99.99,,,-99.99,,2013-03-07 14:43:00,
2013-03-07 09:54:00,47.0,-99.9,30.23,NNE,30,13.0,18.0,-999,-99.99,,,-99.99,,2013-03-07 14:54:00,
2013-03-07 10:03:00,48.0,-99.9,30.23,NNE,26,11.0,16.0,-999,-99.99,,,-99.99,,2013-03-07 15:03:00,
2013-03-07 10:13:00,48.0,-99.9,30.23,NNE,23,13.0,17.0,-999,-99.99,,,-99.99,,2013-03-07 15:13:00,
2013-03-07 10:23:00,48.0,-99.9,30.23,NNE,30,12.0,17.0,-999,-99.99,,,-99.99,,2013-03-07 15:23:00,
2013-03-07 10:33:00,48.0,-99.9,30.23,NNE,24,13.0,15.0,-999,-99.99,,,-99.99,,2013-03-07 15:33:00,
2013-03-07 10:43:00,48.0,-99.9,30.23,NNE,24,13.0,15.0,-999,-99.99,,,-99.99,,2013-03-07 15:43:00,
2013-03-07 10:53:00,49.0,-99.9,30.24,NE,34,9.0,12.0,-999,-99.99,,,-99.99,,2013-03-07 15:53:00,
2013-03-07 11:03:00,49.0,-99.9,30.24,NE,49,5.0,11.0,-999,-99.99,,,-99.99,,2013-03-07 16:03:00,
2013-03-07 11:13:00,50.0,-99.9,30.24,NE,38,7.0,12.0,-999,-99.99,,,-99.99,,2013-03-07 16:13:00,
2013-03-07 11:24:00,50.0,-99.9,30.24,NE,42,9.0,12.0,-999,-99.99,,,-99.99,,2013-03-07 16:24:00,
2013-03-07 11:33:00,50.0,-99.9,30.24,North,354,10.0,12.0,-999,-99.99,,,-99.99,,2013-03-07 16:33:00,
2013-03-07 11:43:00,50.0,-99.9,30.24,North,349,11.0,14.0,-999,-99.99,,,-99.99,,2013-03-07 16:43:00,
2013-03-07 11:53:00,50.0,-99.9,30.24,North,355,9.0,11.0,-999,-99.99,,,-99.99,,2013-03-07 16:53:00,
2013-03-07 12:03:00,50.0,-99.9,30.23,North,349,11.0,12.0,-999,-99.99,,,-99.99,,2013-03-07 17:03:00,
2013-03-07 12:13:00,51.0,-99.9,30.23,NNW,343,11.0,13.0,-999,-99.99,,,-99.99,,2013-03-07 17:13:00,
2013-03-07 12:23:00,51.0,-99.9,30.23,NNW,340,10.0,11.0,-999,-99.99,,,-99.99,,2013-03-07 17:23:00,
2013-03-07 12:34:00,51.0,-99.9,30.24,NNW,336,11.0,13.0,-999,-99.99,,,-99.99,,2013-03-07 17:34:00,
2013-03-07 12:44:00,51.0,-99.9,30.24,NNW,334,11.0,14.0,-999,-99.99,,,-99.99,,2013-03-07 17:44:00,
2013-03-07 12:55:00,51.0,-99.9,30.24,NNW,337,12.0,13.0,-999,-99.99,,,-99.99,,2013-03-07 17:55:00,
2013-03-07 13:04:00,51.0,-99.9,30.24,NNW,334,12.0,14.0,-999,-99.99,,,-99.99,,2013-03-07 18:04:00,
2013-03-07 13:13:00,52.0,-99.9,30.23,NNW,336,13.0,15.0,-999,-99.99,,,-99.99,,2013-03-07 18:13:00,
2013-03-07 13:22:00,52.0,-99.9,30.23,NNW,334,13.0,16.0,-999,-99.99,,,-99.99,,2013-03-07 18:22:00,
2013-03-07 13:33:00,51.0,-99.9,30.22,NNW,329,13.0,17.0,-999,-99.99,,,-99.99,,2013-03-07 18:33:00,
2013-03-07 13:43:00,51.0,-99.9,30.22,NNW,328,15.0,18.0,-999,-99.99,,,-99.99,,2013-03-07 18:43:00,
2013-03-07 13:53:00,51.0,-99.9,30.21,NNW,338,17.0,18.0,-999,-99.99,,,-99.99,,2013-03-07 18:53:00,
2013-03-07 14:03:00,51.0,-99.9,30.21,NNW,333,17.0,20.0,-999,-99.99,,,-99.99,,2013-03-07 19:03:00,
2013-03-07 14:12:00,51.0,-99.9,30.21,NNW,333,15.0,20.0,-999,-99.99,,,-99.99,,2013-03-07 19:12:00,
2013-03-07 14:24:00,51.0,-99.9,30.21,NNW,341,16.0,19.0,-999,-99.99,,,-99.99,,2013-03-07 19:24:00,
2013-03-07 14:35:00,51.0,-99.9,30.20,NNW,346,15.0,18.0,-999,-99.99,,,-99.99,,2013-03-07 19:35:00,
2013-03-07 14:44:00,51.0,-99.9,30.19,NNW,348,15.0,18.0,-999,-99.99,,,-99.99,,2013-03-07 19:44:00,
2013-03-07 14:53:00,51.0,-99.9,30.19,North,349,14.0,17.0,-999,-99.99,,,-99.99,,2013-03-07 19:53:00,
2013-03-07 15:02:00,51.0,-99.9,30.19,North,353,13.0,15.0,-999,-99.99,,,-99.99,,2013-03-07 20:02:00,
2013-03-07 15:14:00,51.0,-99.9,30.19,NNW,327,13.0,15.0,-999,-99.99,,,-99.99,,2013-03-07 20:14:00,
2013-03-07 15:23:00,51.0,-99.9,30.20,NNW,341,15.0,17.0,-999,-99.99,,,-99.99,,2013-03-07 20:23:00,
2013-03-07 15:34:00,51.0,-99.9,30.20,NNW,334,14.0,17.0,-999,-99.99,,,-99.99,,2013-03-07 20:34:00,
2013-03-07 15:43:00,51.0,-99.9,30.20,NNW,334,14.0,17.0,-999,-99.99,,,-99.99,,2013-03-07 20:43:00,
2013-03-07 15:54:00,52.0,-99.9,30.19,NNW,345,15.0,18.0,-999,-99.99,,,-99.99,,2013-03-07 20:54:00,
2013-03-07 16:03:00,52.0,-99.9,30.19,NNW,344,14.0,17.0,-999,-99.99,,,-99.99,,2013-03-07 21:03:00,
2013-03-07 16:13:00,52.0,-99.9,30.20,NNW,344,15.0,17.0,-999,-99.99,,,-99.99,,2013-03-07 21:13:00,
2013-03-07 16:23:00,52.0,-99.9,30.20,NNW,341,15.0,17.0,-999,-99.99,,,-99.99,,2013-03-07 21:23:00,
2013-03-07 16:33:00,52.0,-99.9,30.19,NNW,339,12.0,15.0,-999,-99.99,,,-99.99,,2013-03-07 21:33:00,
2013-03-07 16:43:00,53.0,-99.9,30.19,NNW,340,12.0,15.0,-999,-99.99,,,-99.99,,2013-03-07 21:43:00,
2013-03-07 16:53:00,53.0,-99.9,30.19,North,350,11.0,15.0,-999,-99.99,,,-99.99,,2013-03-07 21:53:00,
2013-03-07 17:02:00,53.0,-99.9,30.18,NNW,341,11.0,13.0,-999,-99.99,,,-99.99,,2013-03-07 22:02:00,
2013-03-07 17:12:00,53.0,-99.9,30.18,NNW,341,11.0,13.0,-999,-99.99,,,-99.99,,2013-03-07 22:12:00,
2013-03-07 17:23:00,53.0,-99.9,30.18,NNW,338,13.0,15.0,-999,-99.99,,,-99.99,,2013-03-07 22:23:00,
2013-03-07 17:33:00,53.0,-99.9,30.18,NNW,347,14.0,16.0,-999,-99.99,,,-99.99,,2013-03-07 22:33:00,
2013-03-07 17:44:00,53.0,-99.9,30.18,NNW,343,14.0,16.0,-999,-99.99,,,-99.99,,2013-03-07 22:44:00,
2013-03-07 17:55:00,53.0,-99.9,30.17,NNW,332,11.0,14.0,-999,-99.99,,,-99.99,,2013-03-07 22:55:00,
2013-03-07 18:03:00,53.0,-99.9,30.18,NNW,342,13.0,15.0,-999,-99.99,,,-99.99,,2013-03-07 23:03:00,
2013-03-07 18:13:00,54.0,-99.9,30.18,NW,324,10.0,15.0,-999,-99.99,,,-99.99,,2013-03-07 23:13:00,
2013-03-07 18:22:00,54.0,-99.9,30.17,NNW,334,13.0,15.0,-999,-99.99,,,-99.99,,2013-03-07 23:22:00,
2013-03-07 18:35:00,54.0,-99.9,30.18,NW,324,9.0,14.0,-999,-99.99,,,-99.99,,2013-03-07 23:35:00,
2013-03-07 18:44:00,54.0,-99.9,30.18,NNW,329,11.0,14.0,-999,-99.99,,,-99.99,,2013-03-07 23:44:00,
2013-03-07 18:54:00,54.0,-99.9,30.18,NNW,335,12.0,14.0,-999,-99.99,,,-99.99,,2013-03-07 23:54:00,
2013-03-07 19:05:00,54.0,-99.9,30.19,NNW,331,12.0,15.0,-999,-99.99,,,-99.99,,2013-03-08 00:05:00,
2013-03-07 19:13:00,54.0,-99.9,30.19,NNW,334,13.0,14.0,-999,-99.99,,,-99.99,,2013-03-08 00:13:00,
2013-03-07 19:23:00,54.0,-99.9,30.19,NNW,344,13.0,14.0,-999,-99.99,,,-99.99,,2013-03-08 00:23:00,
2013-03-07 19:35:00,54.0,-99.9,30.19,NNW,335,13.0,14.0,-999,-99.99,,,-99.99,,2013-03-08 00:35:00,
2013-03-07 19:44:00,54.0,-99.9,30.19,NNW,343,13.0,14.0,-999,-99.99,,,-99.99,,2013-03-08 00:44:00,
2013-03-07 19:54:00,55.0,-99.9,30.20,NNW,335,12.0,14.0,-999,-99.99,,,-99.99,,2013-03-08 00:54:00,
2013-03-07 20:02:00,55.0,-99.9,30.20,NNW,337,13.0,15.0,-999,-99.99,,,-99.99,,2013-03-08 01:02:00,
2013-03-07 20:12:00,55.0,-99.9,30.20,NNW,336,14.0,16.0,-999,-99.99,,,-99.99,,2013-03-08 01:12:00,
2013-03-07 20:22:00,55.0,-99.9,30.21,NNW,341,14.0,16.0,-999,-99.99,,,-99.99,,2013-03-08 01:22:00,
2013-03-07 20:33:00,55.0,-99.9,30.21,NNW,338,14.0,17.0,-999,-99.99,,,-99.99,,2013-03-08 01:33:00,
2013-03-07 20:42:00,55.0,-99.9,30.21,NNW,343,13.0,15.0,-999,-99.99,,,-99.99,,2013-03-08 01:42:00,
2013-03-07 20:52:00,55.0,-99.9,30.20,NNW,346,12.0,14.0,-999,-99.99,,,-99.99,,2013-03-08 01:52:00,
2013-03-07 21:02:00,55.0,-99.9,30.21,North,350,12.0,14.0,-999,-99.99,,,-99.99,,2013-03-08 02:02:00,
2013-03-07 21:12:00,55.0,-99.9,30.21,NNW,333,12.0,13.0,-999,-99.99,,,-99.99,,2013-03-08 02:12:00,
2013-03-07 21:22:00,55.0,-99.9,30.21,NNW,348,11.0,15.0,-999,-99.99,,,-99.99,,2013-03-08 02:22:00,
2013-03-07 21:32:00,55.0,-99.9,30.21,NNW,343,12.0,15.0,-999,-99.99,,,-99.99,,2013-03-08 02:32:00,
2013-03-07 21:42:00,55.0,-99.9,30.21,NNW,347,11.0,14.0,-999,-99.99,,,-99.99,,2013-03-08 02:42:00,
2013-03-07 21:53:00,55.0,-99.9,30.21,NNW,348,12.0,13.0,-999,-99.99,,,-99.99,,2013-03-08 02:53:00,
2013-03-07 22:02:00,55.0,-99.9,30.21,North,352,12.0,14.0,-999,-99.99,,,-99.99,,2013-03-08 03:02:00,
2013-03-07 22:12:00,55.0,-99.9,30.22,North,354,12.0,13.0,-999,-99.99,,,-99.99,,2013-03-08 03:12:00,
2013-03-07 22:23:00,55.0,-99.9,30.22,North,358,10.0,12.0,-999,-99.99,,,-99.99,,2013-03-08 03:23:00,
2013-03-07 22:33:00,55.0,-99.9,30.21,North,359,9.0,11.0,-999,-99.99,,,-99.99,,2013-03-08 03:33:00,
2013-03-07 22:43:00,55.0,-99.9,30.21,North,360,9.0,11.0,-999,-99.99,,,-99.99,,2013-03-08 03:43:00,
2013-03-07 22:53:00,55.0,-99.9,30.21,North,351,9.0,11.0,-999,-99.99,,,-99.99,,2013-03-08 03:53:00,
2013-03-07 23:02:00,55.0,-99.9,30.22,North,2,9.0,12.0,-999,-99.99,,,-99.99,,2013-03-08 04:02:00,
2013-03-07 23:12:00,55.0,-99.9,30.22,North,356,8.0,10.0,-999,-99.99,,,-99.99,,2013-03-08 04:12:00,
2013-03-07 23:22:00,55.0,-99.9,30.21,North,357,9.0,10.0,-999,-99.99,,,-99.99,,2013-03-08 04:22:00,
2013-03-07 23:32:00,55.0,-99.9,30.21,North,359,8.0,10.0,-999,-99.99,,,-99.99,,2013-03-08 04:32:00,
2013-03-07 23:42:00,55.0,-99.9,30.21,NNE,27,6.0,9.0,-999,-99.99,,,-99.99,,2013-03-08 04:42:00,
2013-03-07 23:52:00,55.0,-99.9,30.21,NNE,32,5.0,7.0,-999,-99.99,,,-99.99,,2013-03-08 04:52:00,